Location: Krakow
(50.0212°N, 19.9423°E)
Time: 12:46:45
(UTC+02:00)

NOAA 18 - Pass Details

Date: 30 April 2025
Orbit: 837 x 857 km, 98.8° (Epoch: 14 May)

Event Time Altitude Azimuth Distance (km) Brightness Sun altitude
Exits shadow 00:21:23 15° 252° (WSW) 2,153 7.2 -25.1°
Maximum altitude 00:23:01 17° 272° (W) 2,050 7.2 -25.1°
Drops below altitude 10° 00:26:30 10° 312° (NW) 2,501 8.2 -25.2°
Sets 00:29:50 0° 332° (NNW) 3,443 9.4 -25.2°
